H1 CPF 2 NER 2025 12 5 9 339 01 glonass141 H2 1908801 9141 44850 2025 12 5 0 0 0 2025 12 8 23 45 0 900 1 1 0 0 0 1 H9 10 0 61014 0.00000 0 -24964871.668 -4123193.131 -3103054.168 10 0 61014 900.00000 0 -24397461.994 -3890748.999 -6271868.652 10 0 61014 1800.00000 0 -23431581.214 -3699964.738 -9318572.549 10 0 61014 2700.00000 0 -22090773.080 -3604547.548 -12183794.318 10 0 61014 3600.00000 0 -20411026.168 -3652848.412 -14811676.606 10 0 61014 4500.00000 0 -18439374.203 -3885581.538 -17150977.724 10 0 61014 5400.00000 0 -16232046.403 -4333873.635 -19156082.335 10 0 61014 6300.00000 0 -13852245.526 -5017727.387 -20787900.600 10 0 61014 7200.00000 0 -11367647.187 -5944965.752 -22014637.425 10 0 61014 8100.00000 0 -8847725.822 -7110703.007 -22812416.356 10 0 61014 9000.00000 0 -6361019.792 -8497365.941 -23165745.775 10 0 61014 9900.00000 0 -3972450.571 -10075264.976 -23067818.411 10 0 61014 10800.00000 0 -1740808.256 -11803691.545 -22520638.670 10 0 61014 11700.00000 0 283491.682 -13632495.671 -21534975.775 10 0 61014 12600.00000 0 2060287.276 -15504077.275 -20130144.254 10 0 61014 13500.00000 0 3561107.158 -17355707.287 -18333616.716 10 0 61014 14400.00000 0 4770107.346 -19122080.750 -16180477.167 10 0 61014 15300.00000 0 5684470.477 -20737994.378 -13712726.248 10 0 61014 16200.00000 0 6314253.066 -22141035.929 -10978452.651 10 0 61014 17100.00000 0 6681689.666 -23274172.433 -8030887.564 10 0 61014 18000.00000 0 6819985.650 -24088128.708 -4927361.259 10 0 61014 18900.00000 0 6771651.799 -24543456.729 -1728182.782 10 0 61014 19800.00000 0 6586452.939 -24612209.541 1504534.939 10 0 61014 20700.00000 0 6319058.820 -24279150.312 4708081.267 10 0 61014 21600.00000 0 6026497.578 -23542446.737 7820361.693 10 0 61014 22500.00000 0 5765519.960 -22413822.679 10781095.816 10 0 61014 23400.00000 0 5589985.780 -20918161.641 13532976.543 10 0 61014 24300.00000 0 5548382.593 -19092579.365 16022768.707 10 0 61014 25200.00000 0 5681580.702 -16985004.748 18202326.768 10 0 61014 26100.00000 0 6020918.322 -14652328.313 20029513.081 10 0 61014 27000.00000 0 6586696.796 -12158194.949 21469000.291 10 0 61014 27900.00000 0 7387148.609 -9570531.856 22492943.715 10 0 61014 28800.00000 0 8417921.408 -6958913.150 23081511.944 10 0 61014 29700.00000 0 9662099.994 -4391868.919 23223266.414 10 0 61014 30600.00000 0 11090766.274 -1934248.572 22915383.223 10 0 61014 31500.00000 0 12664075.127 355253.947 22163713.085 10 0 61014 32400.00000 0 14332803.010 2426312.079 20982677.913 10 0 61014 33300.00000 0 16040306.629 4238825.310 19395005.212 10 0 61014 34200.00000 0 17724811.913 5764348.308 17431304.166 10 0 61014 35100.00000 0 19321939.514 6987031.678 15129490.119 10 0 61014 36000.00000 0 20767362.751 7904035.293 12534066.840 10 0 61014 36900.00000 0 21999487.690 8525396.773 9695278.886 10 0 61014 37800.00000 0 22962043.385 8873360.242 6668148.988 10 0 61014 38700.00000 0 23606473.300 8981193.092 3511418.015 10 0 61014 39600.00000 0 23894026.437 8891540.144 286407.449 10 0 61014 40500.00000 0 23797458.796 8654384.423 -2944173.704 10 0 61014 41400.00000 0 23302271.717 8324700.817 -6117454.077 10 0 61014 42300.00000 0 22407432.951 7959902.396 -9171632.516 10 0 61014 43200.00000 0 21125548.173 7617188.421 -12047192.997 10 0 61014 44100.00000 0 19482473.930 7350907.634 -14688076.940 10 0 61014 45000.00000 0 17516386.988 7210050.083 -17042788.653 10 0 61014 45900.00000 0 15276348.241 7235975.352 -19065411.128 10 0 61014 46800.00000 0 12820421.028 7460475.036 -20716511.281 10 0 61014 47700.00000 0 10213422.740 7904252.942 -21963916.135 10 0 61014 48600.00000 0 7524404.170 8575888.528 -22783344.338 10 0 61014 49500.00000 0 4823962.486 9471328.327 -23158880.496 10 0 61014 50400.00000 0 2181500.612 10573927.425 -23083283.132 10 0 61014 51300.00000 0 -337452.202 11855039.519 -22558120.626 10 0 61014 52200.00000 0 -2673746.793 13275130.688 -21593732.951 10 0 61014 53100.00000 0 -4776843.178 14785369.705 -20209020.567 10 0 61014 54000.00000 0 -6606670.136 16329627.524 -18431065.270 10 0 61014 54900.00000 0 -8135038.877 17846801.329 -16294591.095 10 0 61014 55800.00000 0 -9346553.450 19273364.825 -13841276.487 10 0 61014 56700.00000 0 -10238981.899 20546037.045 -11118931.903 10 0 61014 57600.00000 0 -10823074.996 21604457.116 -8180559.533 10 0 61014 58500.00000 0 -11121842.658 22393752.327 -5083314.185 10 0 61014 59400.00000 0 -11169320.945 22866891.563 -1887386.194 10 0 61014 60300.00000 0 -11008883.816 22986725.516 1345171.376 10 0 61014 61200.00000 0 -10691172.723 22727628.373 4551647.978 10 0 61014 62100.00000 0 -10271732.868 22076672.769 7669889.638 10 0 61014 63000.00000 0 -9808456.816 21034289.410 10639498.315 10 0 61014 63900.00000 0 -9358943.772 19614384.503 13402993.556 10 0 61014 64800.00000 0 -8977885.849 17843910.652 15906914.611 10 0 61014 65700.00000 0 -8714590.999 15761909.533 18102842.570 10 0 61014 66600.00000 0 -8610746.203 13418066.306 19948323.912 10 0 61014 67500.00000 0 -8698514.108 10870835.596 21407678.921 10 0 61014 68400.00000 0 -8999042.322 8185216.131 22452680.718 10 0 61014 69300.00000 0 -9521447.335 5430265.235 23063093.009 10 0 61014 70200.00000 0 -10262315.523 2676454.693 23227057.191 10 0 61014 71100.00000 0 -11205742.428 -7024.236 22941321.982 10 0 61014 72000.00000 0 -12323909.528 -2554896.832 22211311.320 10 0 61014 72900.00000 0 -13578175.635 -4908274.558 21051028.930 10 0 61014 73800.00000 0 -14920638.968 -7016857.494 19482800.602 10 0 61014 74700.00000 0 -16296106.400 -8840779.367 17536857.948 10 0 61014 75600.00000 0 -17644389.261 -10352019.292 15250770.184 10 0 61014 76500.00000 0 -18902831.215 -11535321.816 12668733.225 10 0 61014 77400.00000 0 -20008963.351 -12388586.819 9840728.228 10 0 61014 78300.00000 0 -20903175.717 -12922712.663 6821564.396 10 0 61014 79200.00000 0 -21531292.989 -13160898.659 3669823.440 10 0 61014 80100.00000 0 -21846945.237 -13137435.679 446725.521 10 0 61014 81000.00000 0 -21813632.672 -12896035.447 -2785061.520 10 0 61014 81900.00000 0 -21406395.607 -12487768.929 -5962646.205 10 0 61014 82800.00000 0 -20613017.193 -11968701.147 -9024146.162 10 0 61014 83700.00000 0 -19434706.061 -11397323.120 -11909904.467 10 0 61014 84600.00000 0 -17886228.056 -10831890.609 -14563664.651 10 0 61014 85500.00000 0 -15995479.716 -10327783.626 -16933680.026 10 0 61015 0.00000 0 -13802520.262 -9934999.979 -18973734.309 10 0 61015 900.00000 0 -11358100.576 -9695890.233 -20644053.552 10 0 61015 1800.00000 0 -8721753.397 -9643231.793 -21912088.089 10 0 61015 2700.00000 0 -5959520.748 -9798723.944 -22753152.393 10 0 61015 3600.00000 0 -3141416.677 -10171968.879 -23150907.322 10 0 61015 4500.00000 0 -338730.585 -10759981.965 -23097676.583 10 0 61015 5400.00000 0 2378715.809 -11547252.099 -22594591.349 10 0 61015 6300.00000 0 4945243.299 -12506349.432 -21651560.686 10 0 61015 7200.00000 0 7301810.323 -13599054.382 -20287068.948 10 0 61015 8100.00000 0 9398224.899 -14777959.719 -18527804.785 10 0 61015 9000.00000 0 11194981.969 -15988477.471 -16408129.684 10 0 61015 9900.00000 0 12664650.831 -17171165.303 -13969397.130 10 0 61015 10800.00000 0 13792756.468 -18264273.643 -11259136.408 10 0 61015 11700.00000 0 14578120.044 -19206405.635 -8330117.639 10 0 61015 12600.00000 0 15032646.655 -19939177.430 -5239316.998 10 0 61015 13500.00000 0 15180571.706 -20409766.554 -2046802.886 10 0 61015 14400.00000 0 15057199.992 -20573241.057 1185434.710 10 0 61015 15300.00000 0 14707192.645 -20394571.674 4394688.448 10 0 61015 16200.00000 0 14182475.904 -19850242.780 7518747.843 10 0 61015 17100.00000 0 13539861.088 -18929395.013 10497099.914 10 0 61015 18000.00000 0 12838476.835 -17634452.193 13272093.249 10 0 61015 18900.00000 0 12137122.014 -15981206.729 15790043.543 10 0 61015 19800.00000 0 11491650.439 -13998360.249 18002260.160 10 0 61015 20700.00000 0 10952496.791 -11726538.616 19865974.933 10 0 61015 21600.00000 0 10562446.774 -9216821.992 21345156.601 10 0 61015 22500.00000 0 10354744.099 -6528850.283 22411196.496 10 0 61015 23400.00000 0 10351612.822 -3728581.454 23043453.466 10 0 61015 24300.00000 0 10563256.253 -885794.130 23229648.541 10 0 61015 25200.00000 0 10987374.153 1928563.896 22966102.414 10 0 61015 26100.00000 0 11609218.638 4645073.316 22257811.325 10 0 61015 27000.00000 0 12402187.177 7198477.362 21118359.656 10 0 61015 27900.00000 0 13328929.056 9530144.822 19569670.123 10 0 61015 28800.00000 0 14342920.457 11590261.280 17641595.227 10 0 61015 29700.00000 0 15390443.784 13339658.525 15371356.351 10 0 61015 30600.00000 0 16412889.842 14751206.608 12802839.681 10 0 61015 31500.00000 0 17349287.450 15810710.510 9985760.923 10 0 61015 32400.00000 0 18138955.087 16517273.725 6974713.518 10 0 61015 33300.00000 0 18724163.205 16883112.970 3828117.607 10 0 61015 34200.00000 0 19052694.707 16932831.182 607089.471 10 0 61015 35100.00000 0 19080194.606 16702178.792 -2625746.865 10 0 61015 36000.00000 0 18772208.170 16236355.131 -5807482.503 10 0 61015 36900.00000 0 18105819.556 15587921.614 -8876156.479 10 0 61015 37800.00000 0 17070819.551 14814415.157 -11771973.474 10 0 61015 38700.00000 0 15670350.925 13975763.492 -14438481.428 10 0 61015 39600.00000 0 13921002.073 13131612.671 -16823684.720 10 0 61015 40500.00000 0 11852343.203 12338681.086 -18881069.932 10 0 61015 41400.00000 0 9505923.170 11648253.191 -20570523.082 10 0 61015 42300.00000 0 6933768.135 11103920.153 -21859119.545 10 0 61015 43200.00000 0 4196444.472 10739663.946 -22721770.727 10 0 61015 44100.00000 0 1360766.860 10578366.552 -23141714.629 10 0 61015 45000.00000 0 -1502752.511 10630807.591 -23110840.775 10 0 61015 45900.00000 0 -4322606.872 10895192.673 -22629843.467 10 0 61015 46800.00000 0 -7029036.994 11357231.991 -21708200.851 10 0 61015 47700.00000 0 -9556698.069 11990765.198 -20363980.777 10 0 61015 48600.00000 0 -11847140.407 12758905.288 -18623477.954 10 0 61015 49500.00000 0 -13851001.086 13615652.229 -16520690.135 10 0 61015 50400.00000 0 -15529816.109 14507907.212 -14096644.317 10 0 61015 51300.00000 0 -16857378.787 15377801.498 -11398586.799 10 0 61015 52200.00000 0 -17820589.376 16165240.736 -8479053.580 10 0 61015 53100.00000 0 -18419762.479 16810556.652 -5394839.959 10 0 61015 54000.00000 0 -18668381.629 17257153.751 -2205890.023 10 0 61015 54900.00000 0 -18592313.653 17454039.169 1025871.828 10 0 61015 55800.00000 0 -18228518.070 17358129.015 4237744.075 10 0 61015 56700.00000 0 -17623307.708 16936234.253 7367462.434 10 0 61015 57600.00000 0 -16830235.284 16166642.962 10354401.771 10 0 61015 58500.00000 0 -15907695.926 15040232.870 13140742.527 10 0 61015 59400.00000 0 -14916346.988 13561067.920 15672579.658 10 0 61015 60300.00000 0 -13916453.634 11746454.085 17900953.526 10 0 61015 61200.00000 0 -12965271.176 9626452.120 19782783.901 10 0 61015 62100.00000 0 -12114573.180 7242867.193 21281690.357 10 0 61015 63000.00000 0 -11408427.857 4647756.675 22368684.541 10 0 61015 63900.00000 0 -10881314.760 1901516.959 23022722.220 10 0 61015 64800.00000 0 -10556659.572 -929372.866 23231105.475 10 0 61015 65700.00000 0 -10445847.544 -3774858.820 22989727.976 10 0 61015 66600.00000 0 -10547756.509 -6563969.401 22303158.848 10 0 61015 67500.00000 0 -10848829.117 -9227514.498 21184563.247 10 0 61015 68400.00000 0 -11323681.911 -11700715.911 19655460.462 10 0 61015 69300.00000 0 -11936226.700 -13925661.947 17745323.046 10 0 61015 70200.00000 0 -12641258.565 -15853485.373 15491023.245 10 0 61015 71100.00000 0 -13386445.207 -17446174.838 12936135.754 10 0 61015 72000.00000 0 -14114635.349 -18677944.454 10130108.660 10 0 61015 72900.00000 0 -14766390.042 -19536104.124 7127317.103 10 0 61015 73800.00000 0 -15282630.749 -20021393.612 3986016.810 10 0 61015 74700.00000 0 -15607292.451 -20147765.567 767217.069 10 0 61015 75600.00000 0 -15689869.051 -19941625.830 -2466505.237 10 0 61015 76500.00000 0 -15487742.308 -19440562.353 -5652227.283 10 0 61015 77400.00000 0 -14968194.021 -18691615.942 -8727913.129 10 0 61015 78300.00000 0 -14110014.370 -17749165.766 -11633632.722 10 0 61015 79200.00000 0 -12904636.131 -16672519.330 -14312742.045 10 0 61015 80100.00000 0 -11356744.635 -15523309.438 -16713000.033 10 0 61015 81000.00000 0 -9484335.677 -14362809.154 -18787599.194 10 0 61015 81900.00000 0 -7318217.164 -13249279.300 -20496088.713 10 0 61015 82800.00000 0 -4900974.117 -12235461.666 -21805171.136 10 0 61015 83700.00000 0 -2285439.555 -11366324.697 -22689356.533 10 0 61015 84600.00000 0 467265.182 -10677157.483 -23131461.141 10 0 61015 85500.00000 0 3290038.809 -10192092.749 -23122940.751 10 0 61016 0.00000 0 6112360.416 -9923121.058 -22664052.708 10 0 61016 900.00000 0 8862996.186 -9869637.173 -21763843.462 10 0 61016 1800.00000 0 11472735.670 -10018537.155 -20439963.218 10 0 61016 2700.00000 0 13877048.534 -10344860.490 -18718311.154 10 0 61016 3600.00000 0 16018547.515 -10812949.242 -16632519.322 10 0 61016 4500.00000 0 17849156.890 -11378073.712 -14223285.888 10 0 61016 5400.00000 0 19331896.707 -11988454.676 -11537571.459 10 0 61016 6300.00000 0 20442209.606 -12587595.520 -8627674.875 10 0 61016 7200.00000 0 21168776.425 -13116824.728 -5550207.232 10 0 61016 8100.00000 0 21513788.452 -13517940.520 -2364984.739 10 0 61016 9000.00000 0 21492667.030 -13735845.415 866137.469 10 0 61016 9900.00000 0 21133244.443 -13721059.252 4080467.388 10 0 61016 10800.00000 0 20474442.435 -13432004.693 7215690.497 10 0 61016 11700.00000 0 19564505.587 -12836969.057 10211072.831 10 0 61016 12600.00000 0 18458865.035 -11915660.291 13008629.667 10 0 61016 13500.00000 0 17217723.026 -10660292.009 15554237.782 10 0 61016 14400.00000 0 15903459.911 -9076152.328 17798670.645 10 0 61016 15300.00000 0 14577972.061 -7181632.705 19698537.611 10 0 61016 16200.00000 0 13300051.500 -5007715.284 21217110.260 10 0 61016 17100.00000 0 12122915.851 -2596939.390 22325021.291 10 0 61016 18000.00000 0 11091990.670 -1889.111 23000823.708 10 0 61016 18900.00000 0 10243035.544 2716736.719 23231400.570 10 0 61016 19800.00000 0 9600691.104 5492393.914 23012218.102 10 0 61016 20700.00000 0 9177506.839 8255209.628 22347417.558 10 0 61016 21600.00000 0 8973489.881 10934644.176 21249743.830 10 0 61016 22500.00000 0 8976193.667 13462189.671 19740311.485 10 0 61016 23400.00000 0 9161343.253 15773995.262 17848211.611 10 0 61016 24300.00000 0 9493971.915 17813311.325 15609965.596 10 0 61016 25200.00000 0 9930022.425 19532651.833 13068834.738 10 0 61016 26100.00000 0 10418346.838 20895585.100 10273997.401 10 0 61016 27000.00000 0 10903021.589 21878078.005 7279608.140 10 0 61016 27900.00000 0 11325880.977 22469336.826 4143755.800 10 0 61016 28800.00000 0 11629162.257 22672108.598 927340.064 10 0 61016 29700.00000 0 11758150.217 22502429.296 -2307112.051 10 0 61016 30600.00000 0 11663708.396 21988828.521 -5496666.551 10 0 61016 31500.00000 0 11304588.374 21171023.443 -8579215.249 10 0 61016 32400.00000 0 10649417.478 20098156.673 -11494695.968 10 0 61016 33300.00000 0 9678278.634 18826652.374 -14186275.177 10 0 61016 34200.00000 0 8383813.276 17417781.486 -16601468.594 10 0 61016 35100.00000 0 6771798.523 15935039.518 -18693176.656 10 0 61016 36000.00000 0 4861172.281 14441448.461 -20420613.481 10 0 61016 36900.00000 0 2683503.556 12996897.617 -21750110.313 10 0 61016 37800.00000 0 281929.014 11655636.359 -22655777.185 10 0 61016 38700.00000 0 -2290400.450 10464025.116 -23120009.599 10 0 61016 39600.00000 0 -4972298.441 9458639.667 -23133830.349 10 0 61016 40500.00000 0 -7696864.466 8664808.445 -22697060.077 10 0 61016 41400.00000 0 -10394050.884 8095643.893 -21818313.674 10 0 61016 42300.00000 0 -12993368.073 7751607.716 -20514823.191 10 0 61016 43200.00000 0 -15426614.741 7620626.987 -18812091.363 10 0 61016 44100.00000 0 -17630519.520 7678754.657 -16743383.211 10 0 61016 45000.00000 0 -19549183.807 7891344.887 -14349066.392 10 0 61016 45900.00000 0 -21136224.464 8214691.858 -11675813.868 10 0 61016 46800.00000 0 -22356527.786 8598061.238 -8775685.175 10 0 61016 47700.00000 0 -23187542.668 8986027.002 -5705104.915 10 0 61016 48600.00000 0 -23620060.448 9321013.696 -2523759.042 10 0 61016 49500.00000 0 -23658450.580 9545935.807 706569.026 10 0 61016 50400.00000 0 -23320344.169 9606822.181 3923199.318 10 0 61016 51300.00000 0 -22635780.542 9455314.417 7063769.664 10 0 61016 52200.00000 0 -21645854.404 9050933.897 10067439.912 10 0 61016 53100.00000 0 -20400921.690 8363022.120 12876062.863 10 0 61016 54000.00000 0 -18958440.273 7372272.967 15435299.791 10 0 61016 54900.00000 0 -17380536.530 6071792.830 17695659.867 10 0 61016 55800.00000 0 -15731399.580 4467644.299 19613444.453 10 0 61016 56700.00000 0 -14074611.632 2578850.446 21151579.340 10 0 61016 57600.00000 0 -12470524.965 436858.997 22280320.192 10 0 61016 58500.00000 0 -10973793.817 -1915512.242 22977818.828 10 0 61016 59400.00000 0 -9631162.703 -4425606.226 23230540.507 10 0 61016 60300.00000 0 -8479602.000 -7032871.931 23033524.868 10 0 61016 61200.00000 0 -7544867.349 -9671145.316 22390485.788 10 0 61016 62100.00000 0 -6840542.074 -12271173.500 21313748.033 10 0 61016 63000.00000 0 -6367602.103 -14763279.571 19824021.235 10 0 61016 63900.00000 0 -6114521.565 -17080059.270 17950014.449 10 0 61016 64800.00000 0 -6057914.998 -19158999.074 15727897.286 10 0 61016 65700.00000 0 -6163689.946 -20944907.777 13200616.384 10 0 61016 66600.00000 0 -6388662.420 -22392060.736 10417078.807 10 0 61016 67500.00000 0 -6682568.113 -23465967.168 7431216.642 10 0 61016 68400.00000 0 -6990385.280 -24144686.030 4300949.690 10 0 61016 69300.00000 0 -7254871.576 -24419634.330 1087065.601 10 0 61016 70200.00000 0 -7419207.463 -24295852.797 -2147961.142 10 0 61016 71100.00000 0 -7429633.682 -23791716.480 -5341188.287 10 0 61016 72000.00000 0 -7237969.895 -22938101.389 -8430438.525 10 0 61016 72900.00000 0 -6803906.179 -21777041.464 -11355520.873 10 0 61016 73800.00000 0 -6096968.318 -20359932.064 -14059415.719 10 0 61016 74700.00000 0 -5098071.524 -18745355.689 -16489399.029 10 0 61016 75600.00000 0 -3800594.674 -16996621.989 -18598082.532 10 0 61016 76500.00000 0 -2210927.575 -15179126.335 -20344348.424 10 0 61016 77400.00000 0 -348466.392 -13357639.078 -21694159.445 10 0 61016 78300.00000 0 1754944.097 -11593640.404 -22621227.927 10 0 61016 79200.00000 0 4056099.021 -9942813.547 -23107530.449 10 0 61016 80100.00000 0 6502007.732 -8452802.195 -23143658.063 10 0 61016 81000.00000 0 9031888.248 -7161326.280 -22728995.463 10 0 61016 81900.00000 0 11579498.412 -6094734.871 -21871726.070 10 0 61016 82800.00000 0 14075706.123 -5267056.063 -20588663.464 10 0 61016 83700.00000 0 16451191.011 -4679582.420 -18904913.118 10 0 61016 84600.00000 0 18639164.548 -4321007.701 -16853371.741 10 0 61016 85500.00000 0 20577994.910 -4168107.175 -14474074.715 10 0 61017 0.00000 0 22213626.982 -4186930.759 -11813405.367 10 0 61017 900.00000 0 23501697.732 -4334456.698 -8923180.736 10 0 61017 1800.00000 0 24409257.143 -4560634.015 -5859636.030 10 0 61017 2700.00000 0 24916026.802 -4810725.906 -2682323.471 10 0 61017 3600.00000 0 25015142.605 -5027853.762 547048.952 10 0 61017 4500.00000 0 24713353.016 -5155633.384 3765817.114 10 0 61017 5400.00000 0 24030666.102 -5140791.513 6911574.980 10 0 61017 6300.00000 0 22999461.752 -4935652.004 9923379.826 10 0 61017 7200.00000 0 21663107.631 -4500386.869 12742925.286 10 0 61017 8100.00000 0 20074137.930 -3804937.657 15315660.092 10 0 61017 9000.00000 0 18292071.664 -2830526.633 17591831.666 10 0 61017 9900.00000 0 16380961.863 -1570694.562 19527435.512 10 0 61017 10800.00000 0 14406777.664 -31821.662 21085053.328 10 0 61017 11700.00000 0 12434727.565 1766890.439 22234565.015 10 0 61017 12600.00000 0 10526634.224 3793975.676 22953722.078 10 0 61017 13500.00000 0 8738468.639 6006777.447 23228572.435 10 0 61017 14400.00000 0 7118144.804 8352996.311 23053729.204 10 0 61017 15300.00000 0 5703665.191 10772649.077 22432478.564 10 0 61017 16200.00000 0 4521693.007 13200359.988 21376724.460 10 0 61017 17100.00000 0 3586609.840 15567891.021 19906770.541 10 0 61017 18000.00000 0 2900097.537 17806808.129 18050942.468 10 0 61017 18900.00000 0 2451261.715 19851174.258 15845056.431 10 0 61017 19800.00000 0 2217292.040 21640158.264 13331742.518 10 0 61017 20700.00000 0 2164632.184 23120451.573 10559634.365 10 0 61017 21600.00000 0 2250610.953 24248391.755 7582439.251 10 0 61017 22500.00000 0 2425466.519 24991703.643 4457905.405 10 0 61017 23400.00000 0 2634678.797 25330784.042 1246705.747 10 0 61017 24300.00000 0 2821511.384 25259474.801 -1988740.605 10 0 61017 25200.00000 0 2929655.148 24785290.306 -5185486.030 10 0 61017 26100.00000 0 2905860.558 23929088.374 -8281286.980 10 0 61017 27000.00000 0 2702445.858 22724197.236 -11215826.469 10 0 61017 27900.00000 0 2279573.046 21215034.485 -13931901.467 10 0 61017 28800.00000 0 1607193.247 19455275.719 -16376550.661 10 0 61017 29700.00000 0 666576.992 17505649.977 -18502099.331 10 0 61017 30600.00000 0 -548637.356 15431455.068 -20267099.780 10 0 61017 31500.00000 0 -2031923.203 13299897.931 -21637148.032 10 0 61017 32400.00000 0 -3763896.885 11177372.506 -22585560.243 10 0 61017 33300.00000 0 -5712900.312 9126790.085 -23093895.311 10 0 61017 34200.00000 0 -7836111.430 7205074.686 -23152313.428 10 0 61017 35100.00000 0 -10081136.361 5460928.592 -22759763.836 10 0 61017 36000.00000 0 -12388016.593 3932961.481 -21923998.518 10 0 61017 36900.00000 0 -14691567.032 2648260.781 -20661412.129 10 0 61017 37800.00000 0 -16923946.792 1621461.996 -18996711.935 10 0 61017 38700.00000 0 -19017354.884 854356.264 -16962424.925 10 0 61017 39600.00000 0 -20906737.750 336049.672 -14598252.405 10 0 61017 40500.00000 0 -22532395.317 43665.325 -11950285.454 10 0 61017 41400.00000 0 -23842376.672 -56443.673 -9070097.240 10 0 61017 42300.00000 0 -24794565.492 -7023.682 -6013730.632 10 0 61017 43200.00000 0 -25358368.631 142135.048 -2840601.537 10 0 61017 44100.00000 0 -25515938.208 336550.506 387660.155 10 0 61017 45000.00000 0 -25262877.122 519596.935 3608408.881 10 0 61017 45900.00000 0 -24608399.952 635140.219 6759197.489 10 0 61017 46800.00000 0 -23574943.878 630148.902 9778983.452 10 0 61017 47700.00000 0 -22197247.200 457170.584 12609304.030 10 0 61017 48600.00000 0 -20520934.926 76569.469 15195398.116 10 0 61017 49500.00000 0 -18600671.292 -541568.807 17487253.939 10 0 61017 50400.00000 0 -16497956.710 -1415944.690 19440563.471 10 0 61017 51300.00000 0 -14278660.612 -2553026.974 21017566.357 10 0 61017 52200.00000 0 -12010392.233 -3946552.517 22187768.424 10 0 61017 53100.00000 0 -9759817.628 -5577564.666 22928522.151 10 0 61017 54000.00000 0 -7590032.981 -7414989.708 23225459.025 10 0 61017 54900.00000 0 -5558101.735 -9416728.578 23072766.166 10 0 61017 55800.00000 0 -3712856.247 -11531220.091 22473302.232 10 0 61017 56700.00000 0 -2093053.853 -13699412.604 21438550.202 10 0 61017 57600.00000 0 -725962.818 -15857064.223 19988407.311 10 0 61017 58500.00000 0 373563.761 -17937277.879 18150815.122 10 0 61017 59400.00000 0 1203487.886 -19873167.531 15961235.428 10 0 61017 60300.00000 0 1774443.755 -21600545.804 13461980.527 10 0 61017 61200.00000 0 2109057.674 -23060521.727 10701409.126 10 0 61017 62100.00000 0 2240758.849 -24201900.276 7733001.955 10 0 61017 63000.00000 0 2212130.528 -24983282.901 4614333.685 10 0 61017 63900.00000 0 2072870.539 -25374780.032 1405960.316 10 0 61017 64800.00000 0 1877447.194 -25359262.322 -1829756.784 10 0 61017 65700.00000 0 1682549.880 -24933096.387 -5029867.207 10 0 61017 66600.00000 0 1544442.938 -24106332.395 -8132063.926 10 0 61017 67500.00000 0 1516336.038 -22902334.036 -11075906.872 10 0 61017 68400.00000 0 1645883.976 -21356865.124 -13804012.634 10 0 61017 69300.00000 0 1972923.642 -19516670.405 -16263185.716 10 0 61017 70200.00000 0 2527545.947 -17437609.797 -18405468.005 10 0 61017 71100.00000 0 3328586.255 -15182424.480 -20189084.822 10 0 61017 72000.00000 0 4382598.998 -12818228.996 -21579268.122 10 0 61017 72900.00000 0 5683361.320 -10413835.160 -22548940.184 10 0 61017 73800.00000 0 7211927.998 -8037020.575 -23079244.079 10 0 61017 74700.00000 0 8937236.196 -5751856.742 -23159910.539 10 0 61017 75600.00000 0 10817235.154 -3616208.868 -22789454.263 10 0 61017 76500.00000 0 12800493.571 -1679511.916 -21975196.229 10 0 61017 77400.00000 0 14828217.098 19084.564 -20733112.138 10 0 61017 78300.00000 0 16836591.038 1452126.242 -19087510.580 10 0 61017 79200.00000 0 18759349.658 2604760.920 -17070547.890 10 0 61017 80100.00000 0 20530464.010 3475106.465 -14721589.915 10 0 61017 81000.00000 0 22086835.278 4074066.584 -12086433.888 10 0 61017 81900.00000 0 23370880.669 4424604.631 -9216406.307 10 0 61017 82800.00000 0 24332903.477 4560508.445 -6167355.196 10 0 61017 83700.00000 0 24933148.379 4524700.620 -2998557.034 10 0 61017 84600.00000 0 25143456.378 4367167.501 228439.735 10 0 61017 85500.00000 0 24948450.928 4142596.042 3451011.633 99